Weather History for Kodiak, AK

Change the Weather History Date:

Wednesday, December 12, 2012

  Actual Average Record
Temperature  
Mean Temperature 40 °F 31 °F  
Max Temperature 48 °F 36 °F 48 °F (2012)
Min Temperature 31 °F 26 °F 7 °F (1977)
Degree Days  
Heating Degree Days 25 34  
Month to date heating degree days 425 403  
Since 1 July heating degree days 3350 3195  
Cooling Degree Days 0    
Month to date cooling degree days 0  
Year to date cooling degree days 0  
Moisture  
Dew Point 27 °F    
Average Humidity 0    
Maximum Humidity 0    
Minimum Humidity 0    
Precipitation  
Precipitation T in 0.29 in 1.43 in (1967)
Month to date precipitation 1.36 3.38  
Year to date precipitation 53.66 72.65  
Snow  
Snow T in 0.50 in 7.40 in (2004)
Month to date snowfall 2.6 5.6  
Since 1 July snowfall 10.5 13.1  
Snow Depth T in    
Sea Level Pressure  
Sea Level Pressure 29.47 in    
Wind  
Wind Speed 14 mph (West)    
Max Wind Speed 39 mph    
Max Gust Speed 59 mph    
Visibility 10 miles    
Events Rain    
T = Trace of Precipitation, MM = Missing Value Source: NWS Daily Summary

Daily Weather History Graph

Daily Weather History Graph

Search for Another Location

Airport:

Trip Planner

Search our weather history database for the weather conditions in past years. The results will help you decide how hot, cold, wet, or windy it might be!

Date:

Astronomy

Dec. 12, 2012 Rise Set
Actual Time 9:45 AM AKST 4:22 PM AKST
Civil Twilight 8:54 AM AKST 5:13 PM AKST
Nautical Twilight 8:02 AM AKST 6:05 PM AKST
Astronomical Twilight 7:14 AM AKST 6:53 PM AKST
Moon 8:56 AM AKST (12/12) 4:14 PM AKST (12/12)
Length of Visible Light 8h 18m
Length of Day
6h 36m
Waning Crescent, 0% of the Moon is Illuminated
Dec 12
Waning Crescent
Dec 12
New
Dec 19
First Quarter
Dec 28
Full
Jan 4
Last Quarter

Hourly Weather History & Observations

Time (AKST) Temp. Windchill Dew Point Humidity Pressure Visibility Wind Dir Wind Speed Gust Speed Precip Events Conditions
12:53 AM 34.0 °F 28.8 °F 28.9 °F 82% 29.61 in 10.0 mi West 5.8 mph - N/A   Mostly Cloudy
1:53 AM 33.1 °F 27.7 °F 28.9 °F 85% 29.57 in 10.0 mi WSW 5.8 mph - N/A   Mostly Cloudy
3:53 AM 34.0 °F 29.8 °F 30.9 °F 89% 29.53 in 10.0 mi WNW 4.6 mph - N/A   Mostly Cloudy
4:53 AM 35.1 °F - 32.0 °F 89% 29.47 in 10.0 mi Calm Calm - 0.00 in Rain Light Rain
5:53 AM 34.0 °F 28.0 °F 32.0 °F 92% 29.44 in 10.0 mi West 6.9 mph - 0.00 in   Mostly Cloudy
6:53 AM 34.0 °F 31.0 °F 32.0 °F 92% 29.42 in 10.0 mi West 3.5 mph - N/A   Mostly Cloudy
7:53 AM 32.0 °F - 30.0 °F 92% 29.40 in 10.0 mi Calm Calm - N/A   Mostly Cloudy
8:53 AM 34.0 °F 29.8 °F 32.0 °F 92% 29.40 in 10.0 mi West 4.6 mph - N/A   Mostly Cloudy
9:53 AM 45.0 °F 41.8 °F 35.1 °F 68% 29.40 in 10.0 mi SW 5.8 mph - 0.00 in Rain Light Rain
10:53 AM 46.9 °F - 24.1 °F 41% 29.38 in 10.0 mi WSW 21.9 mph 38.0 mph 0.00 in   Mostly Cloudy
11:53 AM 46.0 °F 42.5 °F 25.0 °F 44% 29.40 in 10.0 mi Variable 6.9 mph 21.9 mph N/A   Scattered Clouds
12:16 PM 44.6 °F 35.1 °F 24.8 °F 46% 29.41 in 10.0 mi WNW 27.6 mph 36.8 mph N/A   Scattered Clouds
12:53 PM 45.0 °F 39.7 °F 26.1 °F 48% 29.42 in 10.0 mi West 10.4 mph 28.8 mph N/A   Scattered Clouds
1:53 PM 44.1 °F 34.4 °F 26.1 °F 49% 29.39 in 10.0 mi West 27.6 mph 41.4 mph N/A   Partly Cloudy
2:53 PM 42.1 °F 31.3 °F 30.9 °F 65% 29.42 in 10.0 mi West 29.9 mph 44.9 mph 0.00 in Rain Light Rain
3:53 PM 42.1 °F 29.7 °F 24.1 °F 49% 29.42 in 10.0 mi West 41.4 mph 49.5 mph 0.00 in   Mostly Cloudy
4:53 PM 41.0 °F 32.5 °F 23.0 °F 49% 29.44 in 10.0 mi WSW 17.3 mph 38.0 mph N/A   Scattered Clouds
5:53 PM 41.0 °F 30.9 °F 21.9 °F 47% 29.48 in 10.0 mi WSW 24.2 mph 39.1 mph N/A   Scattered Clouds
6:53 PM 41.0 °F 29.7 °F 21.9 °F 47% 29.50 in 10.0 mi West 31.1 mph 49.5 mph N/A   Partly Cloudy
7:53 PM 41.0 °F 31.4 °F 21.9 °F 47% 29.53 in 10.0 mi WSW 21.9 mph 33.4 mph N/A   Partly Cloudy
8:53 PM 41.0 °F 33.5 °F 21.9 °F 47% 29.54 in 10.0 mi West 13.8 mph 29.9 mph N/A   Scattered Clouds
9:53 PM 39.9 °F 31.8 °F 26.1 °F 58% 29.54 in 10.0 mi West 15.0 mph 27.6 mph N/A   Mostly Cloudy
10:53 PM 41.0 °F 32.2 °F 30.9 °F 67% 29.55 in 10.0 mi West 18.4 mph 24.2 mph 0.00 in   Mostly Cloudy
11:53 PM 41.0 °F 31.4 °F 25.0 °F 53% 29.55 in 10.0 mi West 21.9 mph 27.6 mph 0.00 in   Overcast